星链-4551 (STARLINK-4551 )

导读 | 星芒AI

STARLINK-4551 是 SpaceX Starlink 项目中的一颗低轨通信卫星,属于该星座的多个发射批次之一。该卫星设计用于提供全球宽带互联网服务,尤其服务于传统网络难以覆盖的地区。它运行在约 550 公里的轨道高度,配备先进通信设备,支持高速、低延迟的数据传输。STARLINK-4551 于 2022 年通过猎鹰 9 号火箭成功发射,是 SpaceX 扩展其卫星互联网网络的重要组成部分。

基本信息
目录编号:
53575
目录名称:
STARLINK-4551
国际标识:
2022-101BA
轨道中心:
EARTH
卫星名称:
星链-4551
卫星全名:
星链-4551 (STARLINK-4551 )
卫星状态:
在轨 (已飞行1220 天)
发射日期:
2022-08-19 UTC
国别 :
美国 (US)
星等 :
--
轨道信息
数据来源 国际轨道数据 AOE轨道数据
星历时间 2025-12-20T15:18:13+0800
1天前
查看轨道信息
2025-12-16T09:00:00+0800
5天前
查看轨道信息
半长轴 6917.872km 6917.858km
偏心率 0.0001331 0.0001349
轨道倾角 53.218° 53.218°
近地点辐角 86.558° 70.459°
升交点赤经 50.287° 69.423°
平近点角 273.556° 163.104°
近地点 538.814km 538.789km
远地点 540.656km 540.657km
周期 95.437分钟 95.437分钟
每日圈数 15.08843 15.088474
详细信息
固有亮度:
5
最大亮度:
2.5
卫星平台:
Starlink v1.5
覆盖范围:
全球
运营商:
太空探索技术公司
运营商所在国:
美国
制造商(研发单位):
太空探索技术公司
制造商所在国:
美国
使用方式:
暂无
卫星简介
星链(Starlink)计划是由太空探索技术公司(SpaceX)提出的一个巨型低轨卫星互联网星座项目,计划在2019年至2024年间在太空搭建由约1.2万颗卫星组成的“星链”网络,其中1584颗将部署在地球上空550千米处的近地轨道,并从2020年开始工作。该卫星仍在工作。
2D轨道图
3D轨道图
轨道高度分析图
轨道倾角分析图
轨道综合分析图
查看轨道综合分析图